• In India
  • List of Countries
  • For 7 days
  • Water Temperature
  • Satellite Maps
  • Weather Map
  • Weather Widgets
  • user-avatar
    Login

    Hourly Weather Czeladź

    Today, 24 November, Friday

    Time Temperature Precipitation Wind Pressure Humidity
    00:00 +4°C° 0 mm 4 mps 737 mmHg 85%
    01:00 +4°C° 0 mm 4 mps 737 mmHg 86%
    02:00 +4°C° 0 mm 4 mps 737 mmHg 87%
    03:00 +4°C° 0 mm 3 mps 737 mmHg 88%
    04:00 +3°C° 0 mm 3 mps 737 mmHg 88%
    05:00 +3°C° 0 mm 3 mps 737 mmHg 88%
    06:00 +3°C° 0 mm 3 mps 737 mmHg 88%
    07:00 +3°C° 0 mm 3 mps 737 mmHg 88%
    08:00 +4°C° 0 mm 3 mps 737 mmHg 84%
    09:00 +7°C° 0 mm 3 mps 737 mmHg 80%
    10:00 +8°C° 0 mm 3 mps 737 mmHg 75%
    11:00 +9°C° 0 mm 3 mps 737 mmHg 73%
    12:00 +10°C° 0 mm 3 mps 737 mmHg 70%
    13:00 +11°C° 0 mm 4 mps 737 mmHg 67%
    14:00 +10°C° 0 mm 3 mps 736 mmHg 72%
    15:00 +9°C° 0 mm 3 mps 736 mmHg 76%
    16:00 +8°C° 0 mm 3 mps 736 mmHg 80%
    17:00 +8°C° 0 mm 3 mps 736 mmHg 81%
    18:00 +7°C° 0 mm 4 mps 736 mmHg 83%
    19:00 +6°C° 0 mm 4 mps 736 mmHg 84%
    20:00 +6°C° 0 mm 4 mps 736 mmHg 84%
    21:00 +7°C° 0 mm 3 mps 736 mmHg 83%
    22:00 +7°C° 0 mm 3 mps 736 mmHg 83%
    23:00 +7°C° 0 mm 3 mps 736 mmHg 83%

    Tomorrow, 25 November, Saturday

    Time Temperature Precipitation Wind Pressure Humidity
    00:00 +7°C° 0 mm 3 mps 736 mmHg 82%
    01:00 +5°C° 0 mm 3 mps 736 mmHg 82%
    02:00 +6°C° 0 mm 2 mps 736 mmHg 83%
    03:00 +6°C° 0 mm 2 mps 736 mmHg 84%
    04:00 +5°C° 0 mm 2 mps 735 mmHg 86%
    05:00 +5°C° 0 mm 2 mps 735 mmHg 86%
    06:00 +5°C° 0 mm 2 mps 735 mmHg 85%
    07:00 +5°C° 0 mm 2 mps 734 mmHg 85%
    08:00 +5°C° 0 mm 3 mps 734 mmHg 80%
    09:00 +7°C° 0 mm 3 mps 733 mmHg 75%
    10:00 +8°C° 0 mm 3 mps 732 mmHg 70%
    11:00 +8°C° 0 mm 4 mps 732 mmHg 68%
    12:00 +10°C° 0 mm 4 mps 731 mmHg 65%
    13:00 +11°C° 0 mm 4 mps 731 mmHg 62%
    14:00 +10°C° 0 mm 4 mps 730 mmHg 66%
    15:00 +10°C° 0 mm 3 mps 730 mmHg 71%
    16:00 +9°C° 0 mm 3 mps 730 mmHg 76%
    17:00 +9°C° 0.3 mm 3 mps 729 mmHg 78%
    18:00 +9°C° 0.3 mm 3 mps 729 mmHg 80%
    19:00 +8°C° 0.3 mm 3 mps 729 mmHg 83%
    20:00 +7°C° 0.3 mm 4 mps 730 mmHg 83%
    21:00 +7°C° 0.3 mm 5 mps 730 mmHg 83%
    22:00 +7°C° 0.3 mm 5 mps 731 mmHg 84%
    23:00 +6°C° 0.3 mm 5 mps 731 mmHg 83%

    Day after tomorrow, 26 November, Sunday

    Time Temperature Precipitation Wind Pressure Humidity
    00:00 +5°C° 0.3 mm 5 mps 732 mmHg 81%
    01:00 +3°C° 0.3 mm 5 mps 732 mmHg 80%
    02:00 +3°C° 0.1 mm 5 mps 733 mmHg 80%
    03:00 +3°C° 0.1 mm 5 mps 734 mmHg 80%
    04:00 +2°C° 0.1 mm 5 mps 734 mmHg 81%
    05:00 +3°C° 0.1 mm 4 mps 735 mmHg 81%
    06:00 +3°C° 0.1 mm 4 mps 735 mmHg 81%
    07:00 +3°C° 0.1 mm 4 mps 736 mmHg 81%
    08:00 +3°C° 0.1 mm 4 mps 736 mmHg 80%
    09:00 +3°C° 0.1 mm 4 mps 737 mmHg 78%
    10:00 +3°C° 0.1 mm 4 mps 737 mmHg 77%
    11:00 +3°C° 0 mm 4 mps 738 mmHg 75%
    12:00 +3°C° 0 mm 3 mps 738 mmHg 73%
    13:00 +3°C° 0 mm 3 mps 738 mmHg 71%
    14:00 +3°C° 0 mm 3 mps 739 mmHg 72%
    15:00 +3°C° 0 mm 3 mps 739 mmHg 74%
    16:00 +3°C° 0 mm 2 mps 739 mmHg 76%
    17:00 +3°C° 0 mm 2 mps 740 mmHg 78%
    18:00 +2°C° 0 mm 2 mps 740 mmHg 79%
    19:00 +2°C° 0 mm 2 mps 740 mmHg 81%
    20:00 +1°C° 0 mm 2 mps 740 mmHg 81%
    21:00 +1°C° 0 mm 2 mps 741 mmHg 82%
    22:00 +1°C° 0 mm 2 mps 741 mmHg 82%
    23:00 -1°C° 0 mm 2 mps 741 mmHg 83%

    27 November, Monday

    Time Temperature Precipitation Wind Pressure Humidity
    00:00 -1°C° 0 mm 2 mps 741 mmHg 83%
    01:00 -1°C° 0 mm 2 mps 741 mmHg 83%
    02:00 -1°C° 0 mm 2 mps 741 mmHg 83%
    03:00 -2°C° 0 mm 2 mps 741 mmHg 83%
    04:00 -2°C° 0 mm 2 mps 741 mmHg 83%
    05:00 -2°C° 0 mm 2 mps 741 mmHg 83%
    06:00 -2°C° 0 mm 2 mps 741 mmHg 82%
    07:00 -2°C° 0 mm 2 mps 741 mmHg 82%
    08:00 -1°C° 0 mm 2 mps 742 mmHg 77%
    09:00 0°C° 0 mm 3 mps 742 mmHg 73%
    10:00 +1°C° 0 mm 3 mps 742 mmHg 69%
    11:00 +1°C° 0 mm 3 mps 741 mmHg 66%
    12:00 +2°C° 0 mm 3 mps 741 mmHg 64%
    13:00 +2°C° 0 mm 3 mps 741 mmHg 61%
    14:00 +2°C° 0 mm 2 mps 741 mmHg 65%
    15:00 +2°C° 0 mm 2 mps 740 mmHg 69%
    16:00 +1°C° 0 mm 2 mps 740 mmHg 73%
    17:00 +1°C° 0 mm 2 mps 740 mmHg 74%
    18:00 -1°C° 0 mm 2 mps 740 mmHg 75%
    19:00 -1°C° 0 mm 2 mps 741 mmHg 76%
    20:00 -1°C° 0 mm 2 mps 740 mmHg 77%
    21:00 -1°C° 0 mm 2 mps 740 mmHg 77%
    22:00 -1°C° 0 mm 2 mps 740 mmHg 78%
    23:00 -2°C° 0 mm 2 mps 740 mmHg 79%

    28 November, Tuesday

    Time Temperature Precipitation Wind Pressure Humidity
    00:00 -2°C° 0 mm 2 mps 740 mmHg 79%
    01:00 -2°C° 0 mm 2 mps 740 mmHg 79%
    02:00 -2°C° 0 mm 2 mps 740 mmHg 79%
    03:00 -2°C° 0 mm 2 mps 739 mmHg 79%
    04:00 -2°C° 0 mm 2 mps 739 mmHg 79%
    05:00 -2°C° 0 mm 2 mps 739 mmHg 78%
    06:00 -2°C° 0 mm 2 mps 739 mmHg 77%
    07:00 -2°C° 0 mm 3 mps 739 mmHg 76%
    08:00 -1°C° 0 mm 3 mps 739 mmHg 71%
    09:00 0°C° 0 mm 3 mps 738 mmHg 65%
    10:00 +1°C° 0 mm 3 mps 738 mmHg 60%
    11:00 +1°C° 0 mm 3 mps 738 mmHg 57%
    12:00 +2°C° 0 mm 3 mps 737 mmHg 54%
    13:00 +3°C° 0 mm 3 mps 737 mmHg 52%
    14:00 +2°C° 0 mm 3 mps 737 mmHg 57%
    15:00 +1°C° 0 mm 3 mps 737 mmHg 61%
    16:00 +1°C° 0 mm 2 mps 736 mmHg 66%
    17:00 0°C° 0 mm 3 mps 736 mmHg 68%
    18:00 -1°C° 0 mm 3 mps 736 mmHg 69%
    19:00 -1°C° 0 mm 3 mps 736 mmHg 71%
    20:00 -1°C° 0 mm 3 mps 736 mmHg 70%
    21:00 -1°C° 0 mm 3 mps 735 mmHg 70%
    22:00 -1°C° 0 mm 3 mps 735 mmHg 69%
    23:00 -1°C° 0 mm 3 mps 735 mmHg 68%

    29 November, Wednesday

    Time Temperature Precipitation Wind Pressure Humidity
    00:00 -1°C° 0 mm 3 mps 735 mmHg 67%
    01:00 -1°C° 0 mm 3 mps 735 mmHg 66%
    02:00 -1°C° 0 mm 3 mps 734 mmHg 65%
    03:00 -1°C° 0 mm 2 mps 734 mmHg 64%
    04:00 -1°C° 0 mm 2 mps 734 mmHg 63%
    05:00 -1°C° 0 mm 2 mps 734 mmHg 62%
    06:00 -1°C° 0 mm 2 mps 734 mmHg 62%
    07:00 -1°C° 0 mm 2 mps 734 mmHg 61%
    08:00 -1°C° 0 mm 2 mps 734 mmHg 58%
    09:00 +1°C° 0 mm 2 mps 734 mmHg 55%
    10:00 +2°C° 0 mm 2 mps 734 mmHg 52%
    11:00 +2°C° 0 mm 2 mps 733 mmHg 51%
    12:00 +3°C° 0 mm 2 mps 733 mmHg 50%
    13:00 +3°C° 0 mm 2 mps 732 mmHg 49%
    14:00 +2°C° 0 mm 2 mps 732 mmHg 53%
    15:00 +2°C° 0 mm 2 mps 732 mmHg 57%
    16:00 +1°C° 0 mm 2 mps 732 mmHg 60%
    17:00 +1°C° 0.1 mm 2 mps 732 mmHg 63%
    18:00 +1°C° 0.1 mm 2 mps 732 mmHg 65%
    19:00 -1°C° 0.1 mm 2 mps 732 mmHg 68%
    20:00 -1°C° 0 mm 2 mps 732 mmHg 70%
    21:00 -1°C° 0 mm 2 mps 731 mmHg 72%
    22:00 -1°C° 0 mm 3 mps 731 mmHg 75%
    23:00 -1°C° 0 mm 3 mps 731 mmHg 77%
    Show more